EW7061 Weather Reports


time (UTC)temp
F
wind
direction
speed
knots
gust
knots
rain 1hr
in
rain 24hr
in
rain mn
in
humidity
%
barometer
mb
20260505111116 54 229 2.6 7.0 0.00 0.00 0.00 88 1013.2
20260505100903 53 211 3.5 8.7 0.00 0.00 0.00 89 1013.0
20260505100432 53 218 3.5 8.7 0.00 0.00 0.00 89 1012.9
20260505095403 52 219 4.3 7.8 0.00 0.00 0.00 89 1012.9
20260505094503 52 224 3.5 7.8 0.00 0.00 0.00 89 1012.8
20260505093603 52 214 3.5 8.7 0.00 0.00 0.00 89 1012.8
20260505092703 52 213 3.5 8.7 0.00 0.00 0.00 89 1012.6
20260505092232 52 213 4.3 7.8 0.00 0.00 0.00 89 1012.6
20260505091333 52 209 4.3 9.6 0.00 0.00 0.00 89 1012.7
20260505090217 52 198 3.5 8.7 0.00 0.00 0.00 89 1012.6
20260505085616 52 223 3.5 8.7 0.00 0.00 0.00 89 1012.6
20260505084503 52 203 2.6 7.0 0.00 0.00 0.00 89 1012.5
20260505084032 52 191 3.5 7.0 0.00 0.00 0.00 89 1012.5
20260505082703 53 227 4.3 8.7 0.00 0.00 0.00 89 1012.6
20260505082018 53 225 3.5 7.8 0.00 0.00 0.00 89 1012.8
20260505080903 53 228 3.5 8.7 0.00 0.00 0.00 89 1012.8
20260505080003 52 229 3.5 7.8 0.00 0.00 0.00 89 1012.7
20260505075403 52 224 3.5 7.8 0.00 0.00 0.00 89 1012.9
20260505074718 52 224 3.5 8.7 0.00 0.00 0.00 89 1012.9
20260505073603 53 230 3.5 7.8 0.00 0.00 0.00 88 1013.0
20260505072703 53 223 3.5 8.7 0.00 0.00 0.00 88 1013.0
20260505072233 53 223 3.5 8.7 0.00 0.00 0.00 88 1012.9
20260505070903 53 214 3.5 9.6 0.00 0.00 0.00 88 1012.9
20260505070431 53 217 4.3 10.4 0.00 0.00 0.00 88 1012.9
20260505065403 53 235 4.3 11.3 0.00 0.00 0.00 88 1012.8
20260505064717 53 225 4.3 10.4 0.00 0.00 0.00 88 1012.8
20260505063816 53 209 4.3 9.6 0.00 0.00 0.00 88 1012.8
20260505063133 53 209 3.5 10.4 0.00 0.00 0.00 88 1012.8
20260505061803 53 223 4.3 11.3 0.00 0.00 0.00 88 1012.8
20260505061332 53 222 4.3 11.3 0.00 0.00 0.00 88 1012.8
20260505060003 53 220 4.3 11.3 0.00 0.00 0.00 88 1012.7
20260505055618 53 222 4.3 11.3 0.00 0.00 0.00 88 1012.6
20260505054503 53 222 3.5 10.4 0.00 0.00 0.00 88 1012.7
20260505053816 53 226 3.5 7.8 0.00 0.00 0.00 88 1012.8
20260505052703 53 228 5.2 10.4 0.00 0.00 0.00 88 1012.8
20260505051803 53 230 4.3 10.4 0.00 0.00 0.00 88 1012.8
20260505050903 53 218 4.3 13.0 0.00 0.00 0.00 88 1012.8
20260505040903 53 222 5.2 13.9 0.00 0.01 0.00 87 1013.3
20260505040217 53 229 5.2 13.9 0.00 0.01 0.00 86 1013.2
20260505035617 53 226 5.2 11.3 0.00 0.01 0.01 86 1013.3
20260505034503 53 223 5.2 12.2 0.00 0.01 0.01 86 1013.4
20260505033817 53 218 5.2 11.3 0.00 0.01 0.01 86 1013.4
20260505032703 53 224 4.3 12.2 0.00 0.01 0.01 85 1013.3
20260505032019 53 228 4.3 11.3 0.00 0.01 0.01 85 1013.3
20260505030903 54 223 5.2 13.0 0.00 0.01 0.01 84 1013.4
20260505030432 54 222 5.2 13.0 0.00 0.01 0.01 84 1013.4
20260505025403 54 222 5.2 12.2 0.00 0.01 0.01 84 1013.4
20260505024503 54 225 4.3 8.7 0.00 0.01 0.01 84 1013.5
20260505023603 54 222 5.2 11.3 0.00 0.01 0.01 83 1013.5
20260505022703 54 223 6.1 13.9 0.00 0.01 0.01 83 1013.5
20260505021803 54 216 5.2 13.0 0.00 0.01 0.01 84 1013.5
20260505021117 53 214 4.3 13.0 0.00 0.01 0.01 83 1013.5
20260505020003 54 225 5.2 13.0 0.00 0.01 0.01 83 1013.3
20260505015403 53 219 5.2 11.3 0.00 0.01 0.01 83 1013.3
20260505014503 54 216 4.3 12.2 0.00 0.01 0.01 83 1013.2
20260505013817 54 221 5.2 11.3 0.00 0.01 0.01 82 1013.1
20260505012918 54 232 5.2 12.2 0.00 0.01 0.01 82 1012.9
20260505011803 54 223 6.1 13.9 0.00 0.01 0.01 82 1012.8
20260505010903 54 220 5.2 13.9 0.00 0.01 0.01 81 1012.6
20260505010003 54 219 4.3 10.4 0.00 0.01 0.01 81 1012.6
20260505005618 54 223 5.2 13.0 0.00 0.01 0.01 81 1012.5
20260505004503 54 218 5.2 11.3 0.00 0.01 0.01 81 1012.3
20260505003603 54 216 5.2 13.9 0.00 0.01 0.01 81 1012.1
20260505002703 54 222 5.2 13.9 0.00 0.01 0.01 80 1012.0
20260505001803 54 222 5.2 13.0 0.00 0.01 0.01 80 1011.8
20260505001116 54 225 4.3 13.9 0.00 0.01 0.01 79 1011.8
20260505000433 54 227 5.2 15.6 0.00 0.01 0.01 79 1011.7
20260504235403 54 228 5.2 12.2 0.00 0.01 0.01 78 1011.7
20260504234503 54 228 6.1 13.9 0.00 0.01 0.01 78 1011.5
20260504233603 54 219 3.5 8.7 0.00 0.01 0.01 79 1011.4
20260504232703 54 215 4.3 9.6 0.00 0.01 0.01 80 1011.4
20260504232017 54 221 5.2 13.9 0.00 0.01 0.01 78 1011.4
20260504230903 54 215 5.2 13.0 0.00 0.01 0.01 78 1011.2
20260504230003 54 211 4.3 12.2 0.00 0.01 0.01 78 1011.2
20260504225403 55 218 6.1 13.0 0.00 0.01 0.01 77 1011.1
20260504224503 55 220 5.2 12.2 0.00 0.01 0.01 77 1011.1
20260504223603 55 219 6.1 14.8 0.00 0.01 0.01 77 1011.1
20260504222703 55 219 5.2 11.3 0.00 0.01 0.01 77 1011.2
20260504222016 55 221 6.1 13.9 0.00 0.01 0.01 76 1011.2
20260504221118 56 222 7.0 14.8 0.00 0.01 0.01 74 1011.1
20260504220003 57 227 7.0 18.2 0.00 0.01 0.01 74 1011.3
20260504215403 57 227 6.1 17.4 0.00 0.01 0.01 73 1011.2
20260504214503 57 209 6.1 13.9 0.00 0.01 0.01 72 1011.3
20260504213817 57 217 6.1 14.8 0.00 0.01 0.01 73 1011.2
20260504212917 58 218 6.1 13.0 0.00 0.01 0.01 72 1011.3
20260504211803 58 212 6.1 13.0 0.00 0.01 0.01 72 1011.3
20260504211117 58 205 7.0 13.9 0.00 0.01 0.01 72 1011.3
20260504210217 58 207 7.8 15.6 0.00 0.01 0.01 72 1011.1
20260504205403 58 209 8.7 15.6 0.00 0.01 0.01 72 1010.9
20260504204503 58 211 7.0 13.9 0.00 0.01 0.01 72 1010.9
20260504203603 58 216 7.8 15.6 0.00 0.01 0.01 72 1010.8
20260504202703 58 215 8.7 16.5 0.00 0.01 0.01 70 1010.5
20260504201803 59 213 7.0 16.5 0.00 0.01 0.01 70 1010.6
20260504201117 59 219 7.8 16.5 0.00 0.01 0.01 70 1010.7
20260504200003 60 214 7.0 17.4 0.00 0.01 0.01 68 1010.7
20260504195403 60 213 7.8 14.8 0.00 0.01 0.01 66 1010.7
20260504194503 61 209 7.8 13.9 0.00 0.01 0.01 65 1010.9
20260504193603 62 211 7.8 18.2 0.00 0.01 0.01 63 1010.8
20260504192703 62 221 7.8 16.5 0.00 0.01 0.01 64 1010.8
20260504191803 62 219 7.0 13.9 0.00 0.01 0.01 62 1011.0
20260504191116 62 216 6.1 13.9 0.00 0.01 0.01 64 1011.0
20260504190003 61 218 7.8 18.2 0.00 0.01 0.01 67 1011.1
20260504185403 62 221 7.8 18.2 0.00 0.01 0.01 67 1011.1
20260504184717 61 219 8.7 17.4 0.00 0.01 0.01 68 1011.0
20260504183603 60 219 8.7 19.1 0.00 0.01 0.01 68 1011.0
20260504182703 61 218 7.8 17.4 0.00 0.01 0.01 68 1010.7
20260504181803 61 223 7.8 17.4 0.00 0.01 0.01 68 1010.5
20260504180903 61 215 7.8 19.1 0.00 0.01 0.01 68 1010.6
20260504180433 61 216 8.7 19.1 0.00 0.01 0.01 69 1010.7
20260504175403 62 218 7.0 13.9 0.00 0.01 0.01 66 1010.8
20260504174503 61 230 7.8 16.5 0.00 0.01 0.01 66 1011.0
20260504173603 62 222 7.0 12.2 0.00 0.01 0.01 67 1010.9
20260504172703 61 224 7.8 15.6 0.00 0.01 0.01 66 1010.9
20260504171803 62 225 6.1 16.5 0.00 0.01 0.01 66 1011.0
20260504170903 62 214 6.1 14.8 0.00 0.02 0.01 67 1011.1
20260504170217 62 210 5.2 12.2 0.00 0.02 0.01 71 1011.0
20260504160217 62 232 7.0 18.2 0.00 0.05 0.01 63 1011.4
20260504150903 60 229 6.1 15.6 0.00 0.13 0.01 63 1011.9
20260504150216 60 232 7.0 18.2 0.00 0.13 0.01 63 1011.9
20260504140903 57 231 7.8 19.1 0.00 0.16 0.01 71 1012.0